User: anonymous
Location: Churchill
(58.7670°N, 94.1670°W)
Time: 11:48:35
(UTC-05:00)
Language:

Cosmos 2142 Rocket - Orbit

View from above orbital plane
View from above orbital plane
View from above satellite
View from above satellite

Ground track
Ground track

The orbit data is extracted from the following two-line orbital elements,

1 21231U 91029B   14208.42665616  .00000065  00000-0  51987-4 0  5341
2 21231 082.9536 170.6447 0033673 299.7654 180.1656 13.75626142168624
Epoch (UTC): 27 July 2014 10:14:23
Eccentricity: 0.0033673
inclination: 82.9536°
perigee height: 954 km
apogee height: 1004 km
right ascension of ascending node: 170.6447°
argument of perigee: 299.7654°
revolutions per day: 13.75626142
mean anomaly at epoch: 180.1656°
orbit number at epoch: 16862

The dashed part of the orbit path shows where the satellite is in the earth's shadow,  

DLR